Location: Newark
(50.4667°N, 5.5667°E)
Time: 01:54:03
(UTC+00:00)

N. Korean satellite - Visible Passes

Search period start: 16 November 2019 00:00
Search period end: 26 November 2019 00:00
Orbit: 456 x 506 km, 97.2° (Epoch: 14 November)

Date Brightness Start Highest point End Pass type
(mag) Time Alt. Az. Time Alt. Az. Time Alt. Az.
16 Nov 10.3 04:19:17 10° ENE 04:20:16 11° E 04:21:15 10° ESE visible
16 Nov 6.6 05:50:26 10° N 05:54:10 75° WNW 05:57:51 10° SSW visible
16 Nov 6.6 16:30:05 10° SSE 16:33:43 83° ENE 16:37:25 10° NNW visible
17 Nov 7.4 05:25:05 10° NNE 05:28:46 56° E 05:32:24 10° S visible
17 Nov 9.8 17:39:29 10° SW 17:42:00 18° W 17:44:34 10° NW visible
18 Nov 8.8 04:59:58 10° NNE 05:03:17 29° E 05:06:31 10° SSE visible
18 Nov 8.7 17:13:08 10° SSW 17:16:25 32° W 17:19:47 10° NNW visible
19 Nov 9.8 04:35:16 10° NE 04:37:41 16° E 04:40:04 10° SE visible
19 Nov 6.9 06:07:45 10° N 06:11:21 47° WNW 06:14:53 10° SW visible
19 Nov 7.2 16:47:20 10° S 16:50:56 62° WSW 16:54:38 10° NNW visible
20 Nov 6.6 05:42:16 10° NNE 05:46:00 88° E 05:49:41 10° SSW visible
20 Nov 6.6 16:21:55 10° SSE 16:25:33 68° ENE 16:29:15 10° N visible
20 Nov 10.2 17:57:59 10° WSW 17:59:24 12° W 18:00:50 10° WNW visible
21 Nov 7.8 05:16:59 10° NNE 05:20:34 45° E 05:24:06 10° S visible
21 Nov 9.4 17:30:53 10° SW 17:33:45 21° W 17:36:40 10° NW visible
22 Nov 9.1 04:51:57 10° NE 04:55:02 24° E 04:58:04 10° SSE visible
22 Nov 7.4 06:25:09 10° N 06:28:28 31° WNW 06:31:44 10° SW visible
22 Nov 8.2 17:04:44 10° SSW 17:08:12 39° W 17:11:43 10° NNW visible
23 Nov 10.0 04:27:30 10° ENE 04:29:24 13° E 04:31:16 10° ESE visible
23 Nov 6.6 05:59:31 10° N 06:03:11 58° WNW 06:06:46 10° SSW visible
23 Nov 6.8 16:39:03 10° S 16:42:44 77° WSW 16:46:29 10° NNW visible
24 Nov 6.9 05:34:05 10° NNE 05:37:48 72° ESE 05:41:26 10° S visible
24 Nov 6.7 16:13:45 10° SSE 16:17:21 55° ENE 16:21:01 10° N visible
24 Nov 10.0 17:49:01 10° WSW 17:51:05 14° W 17:53:12 10° NW visible
25 Nov 8.3 05:08:52 10° NNE 05:12:19 36° E 05:15:42 10° SSE visible
25 Nov 9.1 17:22:20 10° SSW 17:25:28 26° W 17:28:38 10° NW visible
